Weather in Digos

Philippines     6°45′21″N   125°21′20″E
temp.,
°C
wind,
m/s
gust,
m/s
humid.,
%
clouds,
%
prec.,
mm/h
press.,
hPa
HPBL,
m
13 may, thu
thu1323:00+24sw1189100 0.1 100917
02:00+24nw018996 0.1 100813
05:00+23nw0188100 0.0 100813
08:00+27sse116977 0.0 1009591
11:00+31sse325761 0.1 10071416
14:00+30e226643 2.2 1005772
17:00+26sse2388100 7.2 1006134
20:00+24w1293100 9.4 100866
14 may, fri
fri1423:00+24nw228996 0.0 100823
02:00+23nw118933 0.0 100617
05:00+23nw2289100 0.0 100727
08:00+27wsw1177100 0.0 1009378
11:00+29e2276100 3.3 1008787
14:00+25se2491100 10.0 1006227
17:00+23se1298100 5.5 1007135
20:00+23n0196100 7.6 100939
15 may, sat
sat1523:00+23nw0194100 5.3 100919
02:00+23nw0093100 5.3 100814
05:00+23n009298 0.0 100814
08:00+24ese1190100 0.0 1009111
11:00+26s228476 0.0 1008470
14:00+29se226837 0.2 1006957
17:00+27ese237925 1.0 1006223
20:00+24nw019043 2.9 100813
16 may, sun
sun1623:00+23wnw019050 0.3 100915
02:00+23nnw119034 0.3 100713
05:00+22nnw019248 0.0 100812
08:00+26sse2280100 0.0 1009472
11:00+30se3368100 0.3 10081050
14:00+30ese446690 1.3 10051067
17:00+27ese3579100 0.8 1006479
20:00+25se1188100 1.9 100837
17 may, mon
mon1723:00+24sse1190100 0.1 100824
02:00+23se0192100 0.1 100717
05:00+23wnw019237 0.0 100815
08:00+27se1274100 0.0 1009564
11:00+30ese4465100 0.3 10071107
14:00+30ese4563100 1.1 10051041
17:00+27ese3578100 0.8 1006424
20:00+24ene1292100 2.4 100935